Content
SEND FEEDBACK

Daily
Averages
Monthly
Summary
United States of America

UPI, GUAM


Home > North America > United States > Guam
Elevation: 53 feet     Latitude: 13 34N     Longitude: 144 55E

WEATHER
 
SELECT A DAY
Number of Records: 215,513;   Date Range: 1/1/95 - 12/17/14
 
SHARE

PRINT THIS DATA

[ ← Previous Day ]
WEATHER ALMANAC - NOVEMBER 16, 2013
[ Next Day → ]
[ °C ]   °F
Weather ElementAverageHighLow
Temperature80.1 °F88 °F (11:54 am)75 °F (4:54 am)
Dewpoint72.8 °F77 °F (2:54 pm)69.1 °F (1:54 am)
Humidity79.2 %94 % (2:54 pm)59 % (10:54 am)
Barometer29.83 in29.87 in (8:54 am)29.78 in (1:54 pm)
Wind Speed8.6 mph15 mph (2:54 pm)
Wind Gust23 mph (1:54 pm)
Weather ElementAverage
Visibility9.7 mi
Wind DirectionENE (69.3 °)

Weather ElementTotal
Precipitation0.08 in
Cooling Degree Days16.5 (Base 65)
Growing Degree Days31.5 (Base 50)
Averaged from 29 records on November 16, 2013
WEATHER CONDITIONS BREAKOUT
WIND DIRECTION BREAKOUT
WEATHER BY HOUR - NOVEMBER 16, 2013
[ °C ]   °F
Local TimeTemperatureDewpointHumidityBarometerVisibilityWind DirectionWind SpeedGust SpeedPrecipitationEventsConditions
1:54 AM75.9 °F69.1 °F79 %29.83 in10.0 miNE (50°)5.8 mphClear
2:54 AM75.9 °F70.0 °F82 %29.82 in10.0 miENE (60°)8.1 mphClear
3:54 AM75.9 °F70.0 °F82 %29.81 in10.0 miENE (60°)5.8 mphClear
4:39 AM75.2 °F69.8 °F83 %29.83 in10.0 miENE (60°)6.9 mphPartly Cloudy
4:54 AM75.0 °F69.1 °F82 %29.81 in10.0 miENE (60°)8.1 mphClear
5:54 AM75.9 °F70.0 °F82 %29.83 in10.0 miENE (60°)4.6 mphClear
6:54 AM77.0 °F71.1 °F82 %29.85 in10.0 miENE (60°)4.6 mphClear
7:54 AM81.0 °F70.0 °F69 %29.86 in10.0 miNE (40°)4.6 mphClear
8:54 AM82.9 °F70.0 °F65 %29.87 in10.0 miENE (60°)10.4 mphPartly Cloudy
9:54 AM86.0 °F71.1 °F61 %29.87 in10.0 miNE (40°)11.5 mphMostly Cloudy
10:54 AM87.1 °F71.1 °F59 %29.85 in10.0 miENE (60°)13.8 mph17.3 mphMostly Cloudy
11:54 AM88.0 °F72.0 °F59 %29.82 in10.0 miNE (50°)13.8 mphOvercast
12:54 PM87.1 °F71.1 °F59 %29.80 in10.0 miENE (60°)12.7 mphMostly Cloudy
1:54 PM84.9 °F73.9 °F69 %29.78 in10.0 miEast (90°)13.8 mph23.0 mphOvercast
2:24 PM80.6 °F75.2 °F84 %29.80 in10.0 miESE (110°)9.2 mph0.00 inRainLight Rain
2:32 PM80.6 °F75.2 °F84 %29.80 in10.0 miEast (100°)12.7 mph19.6 mph0.00 inOvercast
2:54 PM79.0 °F77.0 °F94 %29.79 in5.0 miEast (80°)15.0 mph23.0 mph0.04 inRainRain
3:03 PM78.8 °F77.0 °F94 %29.80 in7.0 miEast (90°)10.4 mph0.02 inRainLight Rain
3:54 PM80.1 °F75.0 °F85 %29.79 in10.0 miEast (90°)11.5 mph0.02 inMostly Cloudy
4:54 PM81.0 °F73.9 °F79 %29.79 in10.0 miENE (60°)9.2 mphMostly Cloudy
5:54 PM80.1 °F73.9 °F81 %29.80 in10.0 miNE (50°)8.1 mphMostly Cloudy
6:54 PM79.0 °F75.0 °F88 %29.83 in10.0 miEast (100°)9.2 mphOvercast
7:18 PM78.8 °F75.2 °F89 %29.86 in10.0 miESE (110°)6.9 mphOvercast
7:35 PM78.8 °F75.2 °F89 %29.86 in10.0 miSE (140°)3.5 mphOvercast
7:54 PM78.1 °F75.9 °F93 %29.84 in10.0 miENE (70°)3.5 mphOvercast
8:54 PM80.1 °F75.9 °F87 %29.84 in10.0 miNE (50°)5.8 mphOvercast
9:54 PM81.0 °F73.0 °F77 %29.85 in10.0 miENE (70°)6.9 mphOvercast
10:54 PM80.1 °F73.0 °F79 %29.84 in10.0 miNE (50°)5.8 mphMostly Cloudy
11:54 PM80.1 °F73.9 °F81 %29.83 in10.0 miNNE (30°)6.9 mphMostly Cloudy
Hourly data recorded from PGUM, located miles away from Upi, Guam







STORIES FROM OUR PARTNERS